Simultaneous Nadir Overpasses (SNOs) Predictions

Prediction of SNOs between NOAA-20 and METOP-C Satellite Orbit:

Table of predicted SNOs for the next 14.0 days since TLE Epoch: 8/13/2022
Index Date (NOAA-20) Time (NOAA-20) Lat,Lon (NOAA-20) SZA (NOAA-20 ) Date (METOP-C) Time (METOP-C) Lat,Lon (METOP-C) SZA (METOP-C ) Distance(km) Time Diff (sec)
1 08/15/2022 18:17:21 -73.56, 75.80 120.08 08/15/2022 18:18:27 -73.52, 78.91 120.29 98.31 66
2 08/15/2022 19:08:04 73.41,-116.57 59.78 08/15/2022 19:09:11 73.35,-114.15 59.57 77.27 67
3 08/15/2022 19:58:45 -73.27, 51.08 120.38 08/15/2022 19:59:55 -73.20, 52.85 120.56 57.38 70
4 08/15/2022 20:49:27 73.07,-141.18 59.42 08/15/2022 20:50:39 73.02,-140.20 59.30 32.35 72
5 08/15/2022 21:40:09 -72.98, 26.34 120.68 08/15/2022 21:41:22 -72.93, 26.92 120.78 19.75 73
6 08/15/2022 22:30:52 72.83,-166.04 59.17 08/15/2022 22:32:05 72.80,-166.01 59.12 3.29 73
7 08/15/2022 23:21:35 -72.78, 1.37 120.87 08/15/2022 23:22:46 -72.80, 1.32 120.87 2.71 71
8 08/16/2022 00:12:21 72.79, 168.68 59.15 08/16/2022 00:13:27 72.78, 168.60 59.13 2.76 66
9 08/16/2022 01:03:05 -72.79, -24.02 120.84 08/16/2022 01:04:08 -72.78, -24.06 120.87 2.05 63
10 08/16/2022 01:53:51 72.79, 143.29 59.18 08/16/2022 01:54:48 72.80, 143.32 59.17 1.53 57
11 08/16/2022 02:44:35 -72.80, -49.41 120.81 08/16/2022 02:45:29 -72.81, -49.35 120.82 2.21 54
12 08/16/2022 03:35:20 72.80, 117.89 59.21 08/16/2022 03:36:09 72.78, 117.93 59.17 2.71 49
13 08/16/2022 04:26:03 -72.76, -74.70 120.83 08/16/2022 04:26:50 -72.78, -74.73 120.82 3.16 47
14 08/16/2022 05:16:49 72.76, 92.61 59.18 08/16/2022 05:17:31 72.76, 92.54 59.18 2.11 42
15 08/16/2022 06:07:33 -72.77,-100.09 120.80 08/16/2022 06:08:12 -72.76,-100.12 120.82 1.23 39
16 08/16/2022 06:58:19 72.77, 67.22 59.22 08/16/2022 06:58:52 72.79, 67.26 59.22 2.41 33
17 08/16/2022 07:49:03 -72.77,-125.48 120.77 08/16/2022 07:49:33 -72.79,-125.40 120.77 2.97 30
18 08/16/2022 08:39:49 72.78, 41.82 59.25 08/16/2022 08:40:14 72.76, 41.87 59.22 2.35 25
19 08/16/2022 09:30:33 -72.78,-150.87 120.74 08/16/2022 09:30:55 -72.77,-150.79 120.77 3.30 22
20 08/16/2022 10:21:18 72.74, 16.54 59.22 08/16/2022 10:21:36 72.74, 16.49 59.23 1.70 18
21 08/16/2022 11:12:02 -72.74,-176.16 120.76 08/16/2022 11:12:17 -72.74,-176.18 120.76 0.65 15
22 08/16/2022 12:02:48 72.74, -8.86 59.25 08/16/2022 12:02:57 72.77, -8.79 59.27 3.31 9
23 08/16/2022 12:53:32 -72.75, 158.45 120.73 08/16/2022 12:53:39 -72.72, 158.44 120.76 3.33 7
24 08/16/2022 13:44:18 72.75, -34.25 59.29 08/16/2022 13:44:19 72.74, -34.18 59.27 2.32 1
25 08/16/2022 14:35:02 -72.76, 133.06 120.70 08/16/2022 14:35:00 -72.75, 133.15 120.72 3.34 2
26 08/16/2022 15:25:47 72.71, -59.53 59.26 08/16/2022 15:25:41 72.72, -59.57 59.28 1.71 6
27 08/16/2022 16:16:31 -72.72, 107.77 120.73 08/16/2022 16:16:22 -72.72, 107.77 120.71 0.98 9
28 08/16/2022 17:07:17 72.72, -84.93 59.29 08/16/2022 17:07:03 72.70, -84.96 59.28 2.46 14
29 08/16/2022 17:58:01 -72.72, 82.38 120.69 08/16/2022 17:57:44 -72.70, 82.38 120.71 2.53 17
30 08/16/2022 18:48:47 72.73,-110.32 59.32 08/16/2022 18:48:24 72.73,-110.24 59.32 2.62 23
31 08/16/2022 19:39:30 -72.68, 57.09 120.72 08/16/2022 19:39:06 -72.68, 56.99 120.71 3.31 24
32 08/16/2022 20:30:16 72.69,-135.61 59.30 08/16/2022 20:29:46 72.70,-135.63 59.33 2.14 30
33 08/16/2022 21:21:00 -72.69, 31.70 120.69 08/16/2022 21:20:27 -72.71, 31.71 120.66 1.77 33
34 08/16/2022 22:11:46 72.69,-161.00 59.33 08/16/2022 22:11:08 72.68,-161.01 59.33 1.57 38
35 08/16/2022 23:02:30 -72.70, 6.31 120.65 08/16/2022 23:01:49 -72.68, 6.32 120.66 1.82 41
36 08/16/2022 23:53:16 72.70, 173.61 59.36 08/16/2022 23:52:29 72.71, 173.70 59.38 3.16 47
37 08/17/2022 00:43:59 -72.66, -18.98 120.68 08/17/2022 00:43:11 -72.66, -19.06 120.66 2.83 48
38 08/17/2022 01:34:45 72.66, 148.32 59.34 08/17/2022 01:33:51 72.69, 148.32 59.38 2.80 54
39 08/17/2022 02:25:29 -72.67, -44.37 120.65 08/17/2022 02:24:32 -72.69, -44.35 120.61 2.64 57
40 08/17/2022 03:16:15 72.67, 122.93 59.37 08/17/2022 03:15:13 72.66, 122.93 59.38 0.73 62
41 08/17/2022 04:06:59 -72.67, -69.76 120.62 08/17/2022 04:05:54 -72.67, -69.73 120.61 1.38 65
42 08/17/2022 04:57:44 72.63, 97.64 59.35 08/17/2022 04:56:35 72.64, 97.54 59.38 3.61 69
43 08/17/2022 05:48:28 -72.63, -95.05 120.64 08/17/2022 05:47:16 -72.64, -95.12 120.61 2.58 72
44 08/17/2022 06:39:12 72.53, 72.46 59.27 08/17/2022 06:37:59 72.51, 71.95 59.29 17.08 73
45 08/17/2022 07:29:54 -72.44,-120.03 120.83 08/17/2022 07:28:41 -72.47,-120.81 120.74 26.39 73
46 08/17/2022 08:20:36 72.24, 47.67 58.97 08/17/2022 08:19:26 72.23, 46.06 59.07 54.72 70
47 08/17/2022 09:11:18 -72.14,-144.83 121.13 08/17/2022 09:10:09 -72.14,-146.80 121.01 67.27 69
48 08/17/2022 10:02:00 71.94, 22.87 58.67 08/17/2022 10:00:54 71.90, 20.09 58.80 96.04 66



Historial Predications of SNOs between NOAA-20 and METOP-C
